Location: Charlottesville
(38.0290°N, 78.4770°W)
Time: 04:53:15
(UTC-04:00)

Tiangong 1 - Pass Details

Date: 07 October 2017
Orbit: 293 x 320 km, 42.8° (Epoch: 19 October)

Event Time Altitude Azimuth Distance (km) Brightness Sun altitude
Rises 20:21:21 0° 275° (W) 2,030 6.4 -19.3°
Reaches altitude 10° 20:23:27 10° 287° (WNW) 1,196 4.7 -19.7°
Enters shadow 20:25:27 28° 331° (NNW) 612 2.4 -20.1°
